DO7VLR-5 Weather Reports


time (UTC)temp
C
wind
direction
speed
KPH
gust
KPH
rain 1hr
cm
rain 24hr
cm
rain mn
cm
humidity
%
barometer
mb
20260507040017 8 0.0 1.6 0.03 0.05 0.03 93 1011.6
20260507033017 8 0.0 1.6 0.00 0.03 0.00 90 1011.5
20260507030017 8 0.0 4.8 0.00 0.03 0.00 88 1011.4
20260507023017 9 0.0 4.8 0.00 0.03 0.00 87 1011.4
20260507020017 9 0.0 3.2 0.00 0.03 0.00 88 1011.1
20260507013017 9 270 1.6 4.8 0.00 0.03 0.00 87 1011.0
20260507010017 9 248 1.6 4.8 0.00 0.03 0.00 87 1010.8
20260507003016 9 270 1.6 6.4 0.00 0.05 0.00 87 1010.5
20260507000016 10 0 1.6 8.0 0.00 0.05 0.00 87 1010.4
20260506233017 10 0.0 6.4 0.00 0.05 0.00 89 1010.4
20260506230017 10 0 1.6 6.4 0.00 0.05 0.00 88 1010.2
20260506223016 10 0 1.6 9.7 0.00 0.05 0.00 86 1009.9
20260506220016 10 248 1.6 6.4 0.00 0.05 0.05 86 1009.5
20260506213018 10 0 1.6 6.4 0.00 0.05 0.05 86 1009.3
20260506210017 10 0 1.6 4.8 0.00 0.05 0.05 86 1008.9
20260506203017 11 338 1.6 4.8 0.00 0.05 0.05 86 1008.9
20260506200019 11 0 1.6 9.7 0.00 0.05 0.05 85 1008.8
20260506193019 11 338 1.6 11.3 0.00 0.05 0.05 86 1008.3
20260506190018 11 315 1.6 11.3 0.00 0.05 0.05 85 1007.9
20260506183017 12 0 1.6 11.3 0.00 0.08 0.05 84 1007.4
20260506180016 12 0 3.2 11.3 0.00 0.10 0.05 84 1007.2
20260506173017 12 270 3.2 16.1 0.00 0.15 0.05 83 1007.0
20260506170016 13 338 3.2 12.9 0.00 0.15 0.05 82 1006.8
20260506163016 13 0 3.2 12.9 0.00 0.15 0.05 81 1006.9
20260506160016 14 293 3.2 14.5 0.00 0.15 0.05 80 1006.6
20260506153016 13 270 3.2 14.5 0.00 0.15 0.05 83 1006.7
20260506150016 13 180 1.6 8.0 0.03 0.15 0.05 89 1006.6
20260506143016 13 158 3.2 11.3 0.03 0.18 0.05 89 1006.4
20260506140016 13 203 6.4 17.7 0.00 0.18 0.03 86 1006.3
20260506133017 16 180 6.4 22.5 0.00 0.23 0.03 74 1006.2
20260506130016 15 180 8.0 19.3 0.00 0.23 0.03 77 1006.1
20260506123016 14 180 6.4 19.3 0.00 0.28 0.03 82 1006.1
20260506120016 13 180 4.8 17.7 0.00 0.30 0.03 84 1006.2
20260506113015 14 180 6.4 20.9 0.00 0.33 0.03 82 1006.0
20260506110016 15 180 6.4 19.3 0.00 0.33 0.03 80 1006.0
20260506103016 14 203 6.4 19.3 0.00 0.33 0.03 81 1006.1
20260506100017 13 225 4.8 12.9 0.00 0.33 0.03 87 1005.9
20260506093016 12 180 4.8 19.3 0.00 0.33 0.03 88 1006.0
20260506090016 12 203 4.8 22.5 0.00 0.33 0.03 89 1005.8
20260506083015 12 203 6.4 19.3 0.00 0.33 0.03 88 1005.6
20260506073018 12 180 4.8 16.1 0.00 0.33 0.03 89 1005.6
20260506043017 11 203 3.2 9.7 0.00 0.33 0.03 94 1005.4